sat.trackr.live / text

‹ back to catalog

STARLINK-3334

NORAD 50823 · 2022-001W

PAYLOAD ACTIVE UNKNOWN

§ Identity

Operator
Country
US
Launch date
2022-01-06
Launch site
AFETR
Launch vehicle
Mass (kg)
RCS (m²)

Purposes: comms

External: N2YO · Heavens-Above · Gunter

§ Orbital elements

Epoch: 2026-05-25T03:37:37.672608Z

Period
95.44 min
Inclination
53.2131°
Eccentricity
0.0001041
Mean motion
15.08835360 rev/d
Perigee alt
539.0 km
Apogee alt
540.5 km
Semi-major
6,917.9 km
B*
2.0394e-5
RAAN
185.8728°
Arg perigee
80.3275°
Mean anomaly
279.7835°
Rev number
24,195

§ Raw data

STARLINK-33341 50823U 22001W   26145.15113047  .00000037  00000+0  20394-4 0  99942 50823  53.2131 185.8728 0001041  80.3275 279.7835 15.08835360241956

JSON: /api/v1/satellites/50823 · /tle

For live sub-satellite position, see the globe view (requires WebGL).

§ Visibility from observer

Set your observer location to see the next 7 days of passes ≥ 10°. The values pass through the URL so the page stays shareable.

No JS? Fill the form by hand. The geolocation button needs JavaScript.